Theta_e
316 316 316 315 316 315 316 316 318 317 316 317 318 318 319 319 319 319 319 319 319 318 320 317 320 320 321 323 325 323 328 323 326 326 329 335 342 346 345 345 344 344 342 342
315 316 315 316 316 315 316 316 316 316 316 317 317 318 317 318 319 318 318 319 318 319 318 318 320 320 321 322 324 324 324 325 327 327 328 327 330 329 339 344 345 346 345 343
314 315 315 314 314 315 315 316 316 316 317 317 317 317 317 317 317 317 317 317 318 319 319 319 320 320 320 321 322 323 325 326 327 328 327 327 327 329 329 328 341 343 347 347
314 314 313 314 313 314 316 316 315 315 316 317 317 317 317 317 316 316 317 317 317 318 319 320 320 320 320 320 320 322 325 326 325 328 326 328 331 330 329 331 335 339 345 350
314 314 313 313 314 314 314 315 316 316 316 317 316 316 316 317 317 316 316 318 318 319 319 320 319 319 319 319 320 321 323 325 326 328 329 328 326 326 327 327 329 332 338 350
314 314 313 314 314 313 314 315 315 315 316 317 316 316 316 317 317 317 317 317 317 318 319 319 318 318 318 318 319 320 322 323 324 324 326 328 329 329 329 329 330 332 335 341
315 315 314 313 313 315 315 315 316 317 317 317 317 316 316 317 316 317 316 317 317 317 318 318 318 318 318 318 319 319 320 321 322 322 323 325 328 329 330 331 329 328 329 333
316 316 316 314 315 315 316 317 318 321 319 316 317 316 316 315 316 315 314 314 315 316 317 317 318 317 317 318 318 319 319 320 321 322 323 323 325 326 328 329 330 329 329 331
317 316 315 315 316 315 314 315 315 316 316 316 316 316 317 315 314 314 314 315 317 317 318 317 317 316 316 317 318 318 318 319 319 320 321 322 323 325 327 331 333 331 331 333
316 317 315 316 315 314 314 314 317 317 316 315 314 315 316 316 315 315 315 316 316 317 317 317 317 317 316 317 317 317 317 318 319 319 320 320 321 322 324 328 331 335 335 335
316 317 316 316 317 318 315 316 316 314 316 319 322 317 317 316 316 316 316 316 317 318 318 318 318 317 316 316 316 316 317 318 318 318 319 319 320 321 323 326 330 332 335 338
315 316 316 316 315 316 317 316 317 321 317 315 315 315 316 316 316 316 316 317 317 318 318 318 318 317 316 316 316 316 316 317 316 316 316 316 318 319 322 324 327 331 335 338
315 318 320 317 316 315 315 315 314 314 316 318 321 322 318 317 316 317 318 317 317 318 318 318 318 318 317 316 316 315 315 315 315 315 315 316 319 320 322 324 327 328 333 336
315 316 318 319 316 319 319 317 316 316 319 316 315 315 317 317 317 317 316 317 317 318 318 317 318 318 317 316 316 316 316 316 315 315 314 315 316 321 321 322 326 328 331 335
313 315 315 314 316 315 317 316 315 317 316 317 315 314 315 315 315 316 316 316 317 317 318 317 317 318 318 317 316 316 317 317 316 316 315 314 315 318 320 322 324 327 330 333
312 316 314 316 314 313 314 313 313 314 313 314 314 315 315 314 314 314 315 316 317 317 317 317 317 317 318 317 317 317 317 316 316 316 315 314 314 316 319 322 324 326 329 332
313 314 315 318 314 315 315 313 313 313 313 313 314 314 314 313 314 317 318 318 317 317 317 317 318 318 317 317 317 317 316 316 316 315 314 313 314 316 319 321 323 326 329 333
312 314 316 319 315 321 314 313 314 314 314 315 316 316 315 315 317 317 317 316 315 316 318 317 316 316 315 315 315 315 314 314 314 315 314 313 315 317 319 321 320 325 329 337
311 314 316 317 316 313 313 313 313 317 318 316 318 317 317 316 316 315 315 314 317 317 317 316 315 313 313 313 313 312 313 313 314 313 313 314 314 315 315 317 320 323 330 338
315 316 317 317 319 318 320 315 315 316 319 319 318 317 316 315 316 315 316 316 316 315 315 315 313 312 311 311 312 312 312 313 312 313 314 314 314 314 315 317 317 322 331 339
316 316 319 318 320 317 318 316 315 318 320 316 315 316 316 317 317 316 316 315 315 315 315 312 311 311 311 310 310 311 312 312 312 314 315 315 315 314 316 317 320 325 336 340
315 320 320 318 319 320 315 316 318 318 316 316 315 315 315 315 315 315 315 315 315 316 313 311 311 311 310 309 310 312 312 312 313 314 315 316 316 317 320 321 322 330 338 343
318 315 317 316 318 315 314 315 315 314 314 313 314 314 314 314 314 313 314 314 314 313 313 311 311 310 309 309 310 311 312 313 314 315 316 316 317 318 320 320 327 338 341 343
313 313 314 314 315 313 313 313 312 312 312 313 312 310 309 309 309 310 311 312 312 311 311 309 309 309 309 309 310 312 311 314 315 316 316 314 315 316 318 334 338 341 341 342
311 312 311 312 311 311 312 312 312 312 312 312 310 309 309 309 309 309 309 309 309 309 307 308 309 309 309 308 310 311 313 313 317 319 322 331 332 333 334 332 339 340 339 341
310 310 309 310 308 307 307 310 311 311 310 307 308 308 306 306 306 305 305 306 306 307 306 307 307 308 308 308 310 312 314 315 320 323 323 329 331 331 331 326 321 336 337 337
Wind_Speed
14 11 14 16 15 16 18 16 18 12 13 6 14 18 17 16 17 18 18 17 14 11 12 10 6 2 3 5 7 9 8 5 7 6 7 14 10 17 19 11 21 22 24 24
9 13 16 6 9 12 15 17 18 16 8 10 15 20 19 18 16 19 20 18 18 15 13 9 9 5 3 2 4 7 11 9 7 8 10 10 19 18 12 11 20 19 24 26
14 18 6 2 14 13 16 17 16 15 10 10 14 23 23 21 25 21 19 21 19 18 14 12 9 7 4 3 2 2 4 6 6 7 6 12 13 17 16 22 17 13 21 26
11 12 4 12 14 12 15 13 14 13 11 13 11 14 16 6 7 13 13 15 15 12 10 8 9 7 5 3 1 0 2 5 8 10 4 9 12 14 17 14 13 15 32 29
14 4 10 16 13 12 14 9 10 13 16 18 20 13 16 20 14 14 12 13 9 14 14 14 11 6 4 3 2 2 5 4 5 9 7 13 14 16 17 16 18 20 20 21
16 13 9 12 12 8 13 10 14 17 16 17 20 19 17 13 13 12 12 10 12 11 9 9 7 7 7 5 6 5 8 6 7 9 9 9 16 16 17 19 21 21 20 24
20 22 19 14 15 14 13 14 13 15 16 15 15 10 14 4 7 13 12 12 11 11 10 10 9 7 7 8 9 8 9 9 10 11 11 12 15 18 18 21 23 23 23 23
17 16 15 12 14 17 10 15 10 10 13 14 10 7 7 13 12 2 3 6 7 7 10 4 7 9 10 12 10 12 13 12 13 14 14 14 15 19 18 20 23 24 23 24
16 21 13 7 13 13 15 13 12 15 20 17 17 18 12 8 8 9 10 9 8 8 9 8 12 14 12 12 13 15 16 17 16 17 17 18 19 19 20 22 23 26 26 27
16 18 15 16 7 15 17 14 11 10 16 20 18 19 14 17 15 14 8 9 8 7 11 13 13 15 15 15 16 18 18 18 18 20 20 21 21 21 22 22 24 24 26 27
13 16 19 16 12 18 13 15 16 16 15 9 13 5 11 11 9 9 7 4 8 12 13 14 12 14 14 15 15 16 17 17 18 19 21 24 24 25 24 24 25 25 26 26
10 8 14 19 18 9 16 16 19 8 16 14 17 18 10 5 7 6 6 10 10 11 12 14 14 15 15 15 16 17 15 18 20 21 22 26 28 27 26 25 26 27 29 29
9 7 12 16 16 13 11 14 16 19 17 20 16 10 17 11 9 9 15 7 8 10 14 13 13 14 16 17 18 19 18 20 20 21 23 25 28 28 26 27 27 30 32 31
6 14 19 15 19 6 9 19 12 16 14 19 20 25 15 15 22 17 13 13 10 10 13 13 13 15 19 19 20 23 24 24 23 23 25 27 28 29 28 30 31 31 32 31
12 19 20 21 21 24 21 23 18 18 19 20 20 23 19 20 21 20 18 18 16 14 15 13 17 16 16 21 25 27 26 28 27 27 28 29 30 33 33 33 32 32 33 33
13 17 20 23 23 21 23 24 22 24 24 26 26 28 23 23 21 22 23 12 15 15 16 17 19 20 18 22 26 27 27 29 30 31 30 33 32 34 35 33 31 33 34 35
14 13 15 18 20 21 20 22 22 21 21 22 22 24 23 21 18 13 9 11 17 17 20 17 17 17 24 29 30 28 30 32 32 33 33 36 35 33 36 32 34 33 34 38
15 14 9 10 13 10 12 9 9 13 15 15 15 14 16 14 13 7 13 16 21 14 19 18 18 23 29 30 30 31 32 33 34 34 36 38 32 34 30 31 32 35 36 38
12 12 7 10 10 15 21 13 10 15 14 15 12 15 10 10 19 15 17 16 14 14 18 21 27 30 32 31 32 33 33 33 32 32 34 37 34 33 32 35 35 37 37 37
2 7 6 5 6 5 6 3 9 12 14 10 16 17 18 19 16 16 21 24 23 23 24 24 30 31 33 31 31 32 34 31 31 32 32 34 32 30 33 35 39 39 38 37
3 1 7 11 8 8 4 11 13 9 6 20 17 20 21 19 18 24 24 24 22 26 27 29 32 28 27 33 35 33 29 29 34 36 34 31 32 37 37 38 38 35 36 35
3 3 4 4 4 5 4 10 8 11 17 18 18 17 18 20 22 22 23 21 24 28 25 31 27 23 30 33 33 28 27 35 34 36 35 33 37 35 34 32 34 36 35 32
2 5 4 3 5 14 11 13 15 12 15 18 19 18 18 21 23 23 20 21 25 25 20 28 26 30 32 30 30 27 30 31 35 32 33 40 42 38 30 30 33 31 35 32
6 10 5 9 2 14 17 16 16 18 18 21 22 20 22 24 25 25 25 23 23 22 23 32 30 23 22 27 31 26 31 35 34 32 38 54 49 43 41 32 35 30 26 23
3 10 10 15 12 18 7 19 20 21 22 25 26 26 25 26 28 29 27 26 23 20 27 29 25 22 25 29 29 32 32 37 40 30 29 16 26 26 27 23 28 28 27 33
4 3 3 7 20 13 15 22 26 26 26 25 27 30 30 26 22 23 21 20 21 18 27 26 28 29 25 27 27 29 30 33 29 21 25 15 19 23 23 22 25 27 27 28
Wind_Direction
202 253 238 248 242 259 289 291 293 288 229 219 266 265 252 230 204 225 235 240 215 232 198 142 169 148 357 354 360 14 50 39 356 337 259 240 238 237 239 230 242 241 239 229
253 243 262 317 301 282 269 258 258 261 260 263 262 264 258 250 239 235 242 224 230 209 219 179 183 160 142 71 9 4 350 351 354 332 330 276 239 260 238 237 235 235 234 236
259 280 20 248 254 247 247 257 263 267 266 255 268 264 255 250 245 243 235 250 231 211 190 203 193 194 177 145 134 331 352 343 318 313 316 297 291 279 275 251 257 261 266 240
274 261 264 247 248 264 267 249 239 281 272 262 243 279 265 232 220 232 234 237 239 194 158 184 209 181 177 175 208 216 346 332 313 311 311 276 273 268 271 292 283 244 235 226
281 207 238 243 250 267 264 305 286 262 268 277 262 260 261 248 221 207 191 191 193 184 184 190 198 199 228 213 275 318 311 338 332 312 302 298 285 286 297 298 281 271 263 229
253 281 258 271 283 278 280 285 257 256 256 253 255 252 261 234 210 159 179 195 179 179 186 203 219 239 241 238 265 281 292 308 320 313 311 291 282 281 283 281 282 277 265 247
239 231 224 221 255 237 242 250 256 244 230 245 239 254 240 80 159 159 175 180 184 196 220 209 224 241 246 255 251 261 266 281 294 291 295 283 275 269 268 269 268 267 265 263
280 279 218 184 234 265 207 266 270 277 289 284 137 236 285 249 155 183 253 254 247 219 232 211 262 275 273 269 272 281 286 287 283 280 280 279 275 274 273 267 264 266 266 261
260 262 286 206 215 234 265 266 275 290 281 282 278 280 157 157 163 209 222 211 226 240 251 259 268 273 274 274 271 271 276 280 277 282 278 278 280 279 273 275 275 271 269 270
280 281 274 223 267 256 258 274 259 239 264 259 262 249 241 166 196 189 196 211 228 264 277 274 271 276 275 277 276 268 263 270 281 282 283 280 281 277 276 273 272 270 267 268
272 271 265 271 206 257 246 234 240 251 256 272 281 277 77 168 149 173 204 253 275 273 270 274 280 279 279 280 281 282 279 277 280 286 288 285 281 279 277 273 271 273 273 264
258 281 276 270 271 274 274 258 232 252 244 238 253 272 195 244 171 171 220 253 294 303 286 280 279 273 277 276 276 275 273 277 280 282 285 292 288 277 274 271 269 270 271 268
314 252 267 265 263 273 254 258 254 264 255 258 258 266 325 182 208 218 242 285 284 295 294 280 276 274 275 275 274 277 276 277 280 286 288 289 289 276 275 275 271 266 266 265
319 274 271 273 294 130 241 236 263 281 255 264 258 270 176 200 242 265 281 294 282 294 295 292 286 281 279 277 286 289 287 286 285 287 291 287 286 280 277 273 270 263 264 263
250 263 269 270 275 275 259 259 246 242 262 271 267 269 266 285 286 291 297 286 278 269 275 294 304 293 280 280 280 279 280 286 287 285 288 287 286 277 273 268 266 265 261 261
258 255 262 268 273 278 269 270 265 262 261 260 263 264 269 270 277 280 277 277 290 282 298 300 293 290 290 288 290 292 291 286 283 280 280 287 284 278 274 270 267 267 261 260
261 265 271 268 272 282 257 258 260 260 265 266 261 267 268 274 274 263 306 302 281 296 299 300 319 312 301 301 300 288 281 284 284 280 277 283 280 271 265 266 261 263 256 255
259 260 270 275 290 270 261 310 308 301 277 268 275 264 276 294 337 312 280 294 291 323 309 308 299 286 286 285 289 296 293 286 282 278 276 282 270 267 268 270 273 263 254 253
246 242 251 252 266 272 282 304 299 283 287 296 244 310 354 341 304 298 291 290 335 303 299 293 292 297 293 297 300 299 297 292 285 280 275 270 268 266 265 266 269 259 255 247
290 268 240 262 247 271 26 332 345 313 279 16 346 335 328 317 301 293 327 321 314 306 289 295 296 298 296 300 306 296 284 281 279 272 266 262 260 257 259 259 265 257 253 231
145 181 235 241 247 270 30 353 322 278 323 324 329 319 319 306 298 308 302 298 298 287 290 297 298 292 309 303 296 285 280 279 281 281 271 263 256 252 254 265 260 260 245 213
266 214 197 223 241 265 278 305 331 319 314 317 316 309 298 297 297 296 294 292 289 287 298 299 297 309 303 297 288 282 280 283 283 281 280 273 270 266 262 258 256 254 214 193
22 355 304 301 298 321 344 331 321 330 309 309 311 308 294 289 289 299 288 280 281 294 300 309 309 303 296 292 288 285 287 291 286 286 279 275 273 265 241 266 247 203 177 158
342 21 317 323 341 324 333 318 331 323 316 319 303 301 308 303 301 303 305 308 308 309 308 306 300 293 289 288 289 287 292 288 279 271 272 273 268 265 261 212 179 150 144 136
335 307 333 292 289 339 329 328 319 316 319 306 313 322 317 314 307 304 298 300 301 296 293 289 290 286 290 292 293 296 295 291 287 274 292 68 150 157 142 137 146 143 146 154
10 340 305 286 316 307 284 297 306 309 299 321 328 320 312 305 301 295 289 289 290 289 290 288 292 291 291 290 290 291 290 290 295 314 342 33 98 111 108 102 85 118 130 133